EN

Hourly Weather Biała Podlaska

Today, 28 October, Wednesday

Time Temperature Precipitation Wind Pressure Humidity
00:00 +11°C° 0 mm 3 mps 747 mmHg 88%
01:00 +11°C° 0 mm 3 mps 747 mmHg 88%
02:00 +10°C° 0 mm 3 mps 748 mmHg 87%
03:00 +10°C° 0 mm 2 mps 748 mmHg 89%
04:00 +10°C° 0 mm 2 mps 748 mmHg 90%
05:00 +10°C° 0 mm 1 mps 747 mmHg 91%
06:00 +10°C° 0 mm 1 mps 748 mmHg 92%
07:00 +10°C° 0 mm 1 mps 748 mmHg 92%
08:00 +9°C° 0 mm 2 mps 748 mmHg 93%
09:00 +12°C° 0 mm 2 mps 748 mmHg 87%
10:00 +13°C° 0 mm 2 mps 748 mmHg 81%
11:00 +13°C° 0 mm 3 mps 748 mmHg 75%
12:00 +14°C° 0 mm 3 mps 748 mmHg 72%
13:00 +16°C° 0 mm 3 mps 748 mmHg 69%
14:00 +17°C° 0 mm 3 mps 748 mmHg 66%
15:00 +16°C° 0 mm 2 mps 748 mmHg 69%
16:00 +15°C° 0 mm 2 mps 748 mmHg 73%
17:00 +14°C° 0 mm 2 mps 748 mmHg 77%
18:00 +14°C° 0 mm 2 mps 748 mmHg 80%
19:00 +13°C° 0 mm 2 mps 748 mmHg 83%
20:00 +12°C° 0 mm 2 mps 747 mmHg 86%
21:00 +12°C° 0 mm 2 mps 748 mmHg 87%
22:00 +12°C° 0 mm 2 mps 748 mmHg 88%
23:00 +12°C° 0 mm 2 mps 748 mmHg 89%

Tomorrow, 29 October, Thursday

Time Temperature Precipitation Wind Pressure Humidity
00:00 +10°C° 0 mm 2 mps 748 mmHg 89%
01:00 +10°C° 0 mm 2 mps 748 mmHg 89%
02:00 +10°C° 0 mm 2 mps 748 mmHg 89%
03:00 +9°C° 0 mm 2 mps 747 mmHg 90%
04:00 +9°C° 0 mm 2 mps 747 mmHg 91%
05:00 +9°C° 0 mm 2 mps 747 mmHg 92%
06:00 +9°C° 0 mm 2 mps 747 mmHg 91%
07:00 +9°C° 0 mm 2 mps 747 mmHg 89%
08:00 +9°C° 0 mm 2 mps 747 mmHg 88%
09:00 +10°C° 0 mm 3 mps 747 mmHg 82%
10:00 +11°C° 0 mm 3 mps 747 mmHg 77%
11:00 +12°C° 0 mm 4 mps 747 mmHg 71%
12:00 +12°C° 0 mm 4 mps 747 mmHg 68%
13:00 +13°C° 0 mm 4 mps 747 mmHg 66%
14:00 +13°C° 0 mm 4 mps 746 mmHg 64%
15:00 +13°C° 0 mm 3 mps 746 mmHg 66%
16:00 +12°C° 0 mm 3 mps 746 mmHg 69%
17:00 +12°C° 0 mm 2 mps 746 mmHg 72%
18:00 +12°C° 0 mm 2 mps 746 mmHg 73%
19:00 +12°C° 0 mm 2 mps 746 mmHg 74%
20:00 +10°C° 0 mm 2 mps 747 mmHg 75%
21:00 +10°C° 0.4 mm 3 mps 747 mmHg 79%
22:00 +10°C° 0.4 mm 3 mps 747 mmHg 83%
23:00 +10°C° 0.4 mm 4 mps 747 mmHg 87%

Day after tomorrow, 30 October, Friday

Time Temperature Precipitation Wind Pressure Humidity
00:00 +10°C° 0.1 mm 4 mps 747 mmHg 86%
01:00 +8°C° 0.1 mm 4 mps 747 mmHg 85%
02:00 +8°C° 0.1 mm 4 mps 747 mmHg 84%
03:00 +7°C° 0 mm 4 mps 748 mmHg 86%
04:00 +6°C° 0 mm 4 mps 748 mmHg 87%
05:00 +6°C° 0 mm 4 mps 749 mmHg 88%
06:00 +6°C° 0 mm 4 mps 749 mmHg 89%
07:00 +6°C° 0 mm 5 mps 749 mmHg 89%
08:00 +5°C° 0 mm 5 mps 749 mmHg 90%
09:00 +6°C° 0 mm 5 mps 750 mmHg 86%
10:00 +6°C° 0 mm 5 mps 750 mmHg 82%
11:00 +7°C° 0 mm 5 mps 750 mmHg 77%
12:00 +7°C° 0 mm 5 mps 750 mmHg 77%
13:00 +7°C° 0 mm 5 mps 750 mmHg 76%
14:00 +7°C° 0 mm 5 mps 750 mmHg 75%
15:00 +7°C° 0 mm 4 mps 750 mmHg 77%
16:00 +8°C° 0 mm 3 mps 750 mmHg 79%
17:00 +8°C° 0 mm 3 mps 749 mmHg 80%
18:00 +7°C° 0 mm 2 mps 749 mmHg 82%
19:00 +7°C° 0 mm 2 mps 749 mmHg 83%
20:00 +7°C° 0 mm 2 mps 749 mmHg 84%
21:00 +8°C° 0.4 mm 1 mps 749 mmHg 86%
22:00 +8°C° 0.4 mm 1 mps 749 mmHg 87%
23:00 +8°C° 0.4 mm 1 mps 748 mmHg 88%

31 October, Saturday

Time Temperature Precipitation Wind Pressure Humidity
00:00 +7°C° 0.3 mm 2 mps 748 mmHg 87%
01:00 +7°C° 0.3 mm 2 mps 748 mmHg 86%
02:00 +7°C° 0.3 mm 2 mps 748 mmHg 84%
03:00 +6°C° 0 mm 2 mps 749 mmHg 86%
04:00 +6°C° 0 mm 2 mps 749 mmHg 87%
05:00 +5°C° 0 mm 2 mps 750 mmHg 88%
06:00 +4°C° 0 mm 3 mps 751 mmHg 88%
07:00 +5°C° 0 mm 3 mps 751 mmHg 88%
08:00 +5°C° 0 mm 3 mps 752 mmHg 88%
09:00 +7°C° 0 mm 3 mps 752 mmHg 85%
10:00 +7°C° 0 mm 4 mps 752 mmHg 82%
11:00 +8°C° 0 mm 4 mps 753 mmHg 78%
12:00 +8°C° 0 mm 4 mps 753 mmHg 77%
13:00 +10°C° 0 mm 4 mps 753 mmHg 76%
14:00 +10°C° 0 mm 4 mps 753 mmHg 74%
15:00 +10°C° 0 mm 4 mps 753 mmHg 77%
16:00 +8°C° 0 mm 4 mps 754 mmHg 79%
17:00 +9°C° 0 mm 3 mps 754 mmHg 82%
18:00 +8°C° 0 mm 3 mps 754 mmHg 82%
19:00 +8°C° 0 mm 3 mps 755 mmHg 83%
20:00 +8°C° 0 mm 2 mps 755 mmHg 84%
21:00 +7°C° 0 mm 2 mps 755 mmHg 86%
22:00 +7°C° 0 mm 2 mps 755 mmHg 89%
23:00 +7°C° 0 mm 2 mps 755 mmHg 91%

1 November, Sunday

Time Temperature Precipitation Wind Pressure Humidity
00:00 +6°C° 0 mm 2 mps 756 mmHg 92%
01:00 +7°C° 0 mm 1 mps 756 mmHg 93%
02:00 +7°C° 0 mm 1 mps 756 mmHg 93%
03:00 +6°C° 0 mm 1 mps 756 mmHg 94%
04:00 +6°C° 0 mm 1 mps 756 mmHg 94%
05:00 +5°C° 0 mm 0 mps 756 mmHg 94%
06:00 +6°C° 0 mm 1 mps 756 mmHg 94%
07:00 +6°C° 0 mm 1 mps 756 mmHg 94%
08:00 +6°C° 0 mm 1 mps 756 mmHg 94%
09:00 +7°C° 0 mm 1 mps 756 mmHg 89%
10:00 +8°C° 0 mm 1 mps 756 mmHg 83%
11:00 +9°C° 0 mm 2 mps 756 mmHg 78%
12:00 +9°C° 0 mm 2 mps 756 mmHg 74%
13:00 +11°C° 0 mm 1 mps 756 mmHg 70%
14:00 +12°C° 0 mm 1 mps 756 mmHg 65%
15:00 +11°C° 0 mm 1 mps 755 mmHg 69%
16:00 +10°C° 0 mm 1 mps 755 mmHg 73%
17:00 +9°C° 0 mm 1 mps 755 mmHg 76%
18:00 +9°C° 0 mm 1 mps 755 mmHg 78%
19:00 +8°C° 0 mm 1 mps 755 mmHg 80%
20:00 +7°C° 0 mm 2 mps 755 mmHg 82%
21:00 +6°C° 0 mm 2 mps 755 mmHg 84%
22:00 +6°C° 0 mm 2 mps 755 mmHg 86%
23:00 +6°C° 0 mm 2 mps 755 mmHg 88%

2 November, Monday

Time Temperature Precipitation Wind Pressure Humidity
00:00 +6°C° 0 mm 2 mps 755 mmHg 90%
01:00 +5°C° 0 mm 2 mps 755 mmHg 91%
02:00 +5°C° 0 mm 2 mps 755 mmHg 93%
03:00 +5°C° 0 mm 2 mps 754 mmHg 93%
04:00 +5°C° 0 mm 2 mps 754 mmHg 94%
05:00 +5°C° 0 mm 2 mps 754 mmHg 94%
06:00 +5°C° 0 mm 2 mps 754 mmHg 94%
07:00 +4°C° 0 mm 2 mps 754 mmHg 94%
08:00 +4°C° 0 mm 2 mps 754 mmHg 95%
09:00 +5°C° 0 mm 3 mps 754 mmHg 88%
10:00 +7°C° 0 mm 3 mps 755 mmHg 82%
11:00 +9°C° 0 mm 3 mps 755 mmHg 76%
12:00 +9°C° 0 mm 3 mps 754 mmHg 71%
13:00 +10°C° 0 mm 3 mps 754 mmHg 67%
14:00 +12°C° 0 mm 2 mps 754 mmHg 63%
15:00 +10°C° 0 mm 2 mps 754 mmHg 67%
16:00 +9°C° 0 mm 2 mps 754 mmHg 71%
17:00 +8°C° 0 mm 2 mps 754 mmHg 74%
18:00 +8°C° 0 mm 2 mps 754 mmHg 78%
19:00 +7°C° 0 mm 2 mps 754 mmHg 83%
20:00 +7°C° 0 mm 2 mps 754 mmHg 87%
21:00 +7°C° 0 mm 2 mps 754 mmHg 89%
22:00 +6°C° 0 mm 2 mps 754 mmHg 92%
23:00 +6°C° 0 mm 2 mps 754 mmHg 94%
Show more

We Need Your Consent

Meteoprog and our Service Providers may store and access personal data such as cookies, device identifiers or other similar technologies on your device and process such data to personalise content and ads, as well as provide social media features and to analyse the traffic.

  • Store and/or access information on your device

    Cookies, device identifiers or other information can be stored or accessed on your device for the purposes indicated above.

  • Personalised ads and content, ad and content measurement, audience insights, and products development

    Ads and content can be personalised based on a profile. More data can be added to better personalise ads and content. Ad and content performance can be measured. Insights about the audience who saw the ads and content can be derived. Such data can be used to develop or improve user’s experience, systems and software.

By clicking ‘I Agree’ you will allow the use of indicated cookies, device identifiers, web beacons or other similar technologies. Your settings can be changed in the browser on your device.

For certain purposes, legitimate interests may be relied on, rather than consent. You can read more about this in our Privacy and Cookie Policy.